This is the latest recevied weather packets stored in our database for station/object HF3P-11. If no packets are shown the sender has not sent any weather packets the latest 10 day(s).
| Time | Temp. | Humidity | Pressure | Rain* | Wind** | Luminosity | Snow |
|---|---|---|---|---|---|---|---|
| 1787755505 | 22.22° C | 57% | 1014.9 hPa | 0 mm | - | - | - |
| 1787755206 | 22.22° C | 58% | 1015 hPa | 0 mm | - | - | - |
| 1787754905 | 22.22° C | 59% | 1015.1 hPa | 0 mm | - | - | - |
| 1787754597 | 22.22° C | 57% | 1015 hPa | 0 mm | - | - | - |
| 1787754298 | 22.22° C | 59% | 1014.9 hPa | 0 mm | - | - | - |
| 1787754005 | 22.22° C | 58% | 1014.9 hPa | 0 mm | - | - | - |
| 1787753705 | 22.22° C | 59% | 1015.1 hPa | 0 mm | - | - | - |
| 1787753406 | 22.22° C | 58% | 1015.2 hPa | 0 mm | - | - | - |
| 1787753105 | 22.22° C | 59% | 1015.1 hPa | 0 mm | - | - | - |
| 1787752797 | 22.22° C | 59% | 1015.1 hPa | 0 mm | - | - | - |
| 1787752498 | 22.22° C | 59% | 1014.9 hPa | 0 mm | - | - | - |
| 1787752205 | 22.22° C | 58% | 1015.1 hPa | 0 mm | - | - | - |
| 1787751897 | 22.22° C | 57% | 1015 hPa | 0 mm | - | - | - |
| 1787751597 | 22.22° C | 58% | 1015.2 hPa | 0 mm | - | - | - |
| 1787751297 | 22.22° C | 61% | 1015.2 hPa | 0 mm | - | - | - |
| 1787751006 | 22.22° C | 60% | 1015.4 hPa | 0 mm | - | - | - |
| 1787750705 | 22.22° C | 60% | 1015.3 hPa | 0 mm | - | - | - |
| 1787750406 | 22.22° C | 61% | 1015.2 hPa | 0 mm | - | - | - |
| 1787750097 | 22.22° C | 62% | 1015.3 hPa | 0 mm | - | - | - |
| 1787749798 | 21.67° C | 62% | 1015.2 hPa | 0 mm | - | - | - |
| 1787749497 | 21.67° C | 63% | 1015.2 hPa | 0 mm | - | - | - |
| 1787749205 | 21.67° C | 63% | 1015.4 hPa | 0 mm | - | - | - |
| 1787748897 | 21.67° C | 63% | 1015.4 hPa | 0 mm | - | - | - |
| 1787748598 | 21.67° C | 62% | 1015.4 hPa | 0 mm | - | - | - |
| 1787748297 | 21.67° C | 61% | 1015.4 hPa | 0 mm | - | - | - |
* Rain latest hour (hover to see other rain measurements)
** Current wind speed in m/s (hover to see current wind gust speed)